Location: Alafon
(8.4500°N, 4.2333°E)
Time: 02:19:37
(UTC+00:00)

Vanguard 2 - Pass Details

Date: 09 August 2021
Orbit: 552 x 2937 km, 32.9° (Epoch: 21 September)

Event Time Altitude Azimuth Distance (km) Brightness Sun altitude
Rises 10:57:27 0° 272° (W) 4,185 11.2 75.6°
Reaches altitude 10° 11:00:30 10° 259° (W) 3,538 10.9 76.2°
Maximum altitude 11:08:08 27° 206° (SSW) 3,152 10.9 77.7°
Drops below altitude 10° 11:19:05 10° 155° (SSE) 5,146 11.8 79.8°
Sets 11:24:51 0° 145° (SE) 6,474 12.2 80.7°
